User: anonymous   Login
Location: Caltech
(34.1382°N, 118.1253°W)
Time: 11:06:02
(UTC-07:00)
Language:

Cosmos 1733 Rocket - Orbit

View from above orbital plane
View from above orbital plane
View from above satellite
View from above satellite

Ground track
Ground track

The orbit data is extracted from the following two-line orbital elements,

1 16612U 86018B   18169.93337264 +.00000067 +00000-0 +50641-5 0  9995
2 16612 082.5166 312.3261 0018335 027.3079 092.1008 14.84197748624759
Epoch (UTC): 18 June 2018 22:24:03
Eccentricity: 0.0018335
inclination: 82.5166°
perigee height: 603 km
apogee height: 629 km
right ascension of ascending node: 312.3261°
argument of perigee: 27.3079°
revolutions per day: 14.84197748
mean anomaly at epoch: 92.1008°
orbit number at epoch: 62475

The dashed part of the orbit path shows where the satellite is in the earth's shadow,  

DLR